Regional Weather Roundup
Issued by NWS

Home | Current Version | Previous Version | Graphics & Text | Print | Product List | Glossary On
Versions: 1 2 3 4 5 6 7 8 9 10 11 12 13 14 15 16 17 18 19 20 21 22 23 24 25 26 27 28 29 30 31 32 33 34 35 36 37 38 39 40 41 42 43 44 45 46 47 48 49 50
000
ASUS43 KTOP 061259
RWRKS

WEATHER ROUNDUP FOR KANSAS
NATIONAL WEATHER SERVICE GOODLAND KS
700 AM CST FRI MAR 06 2015

NOTE:  "FAIR" INDICATES FEW OR NO CLOUDS BELOW 12,000 FEET WITH NO
SIGNIFICANT WEATHER AND/OR OBSTRUCTIONS TO VISIBILITY.

KSZ001>006-013>018-027>032-041>047-061400-
NORTHWEST KANSAS

CITY           SKY/WX    TMP DP  RH WIND       PRES   REMARKS
GOODLAND       CLEAR     27  19  72 W10       30.26R WCI  17
HAYS           CLEAR     23  10  58 W7        30.28R
HILL CITY      CLEAR     23  17  78 W8        30.27S
RUSSELL        CLEAR     24  17  74 SW10      30.27R WCI  14
$$

KSZ061>065-074>080-084>089-061400-
SOUTHWEST KANSAS

CITY           SKY/WX    TMP DP  RH WIND       PRES   REMARKS
DODGE CITY     CLEAR     26  19  74 SW8       30.30S
ELKHART          N/A     30  21  69 W7          N/A
GARDEN CITY    CLEAR     22  19  89 W8        30.29S
GREAT BEND     CLEAR     19  12  73 W6        30.31S
LIBERAL        CLEAR     23  18  80 SW6       30.32S
$$

KSZ066>073-081>083-090>101-061400-
SOUTHEAST KANSAS

CITY           SKY/WX    TMP DP  RH WIND       PRES   REMARKS
CHANUTE        CLEAR     27  19  72 S13       30.40F WCI  16
COFFEYVILLE    CLEAR     26  18  71 S12       30.45F WCI  16
HUTCHINSON     CLEAR     22  18  85 S6        30.33S
MEDICINE LODGE   N/A     24  20  84 S7        30.36S
NEWTON         CLEAR     27  18  69 SW14      30.34S WCI  15
PARSONS        CLEAR     25  19  78 S8        30.43F
WICHITA INTL   CLEAR     23  19  85 S9        30.36F
WICHITA JABRA  CLEAR     28  20  71 SW15      30.35F WCI  16
WICHITA MCCONL CLEAR     26  20  79 S10       30.36S WCI  15
WINFIELD       CLEAR     26  20  77 S9        30.41S
$$

KSZ007>012-019>026-033>040-048>060-102>105-061400-
NORTHEAST KANSAS

CITY           SKY/WX    TMP DP  RH WIND       PRES   REMARKS
CONCORDIA      CLEAR     28  16  60 SW13      30.25S WCI  17
EMPORIA        CLEAR     29  20  69 SW10      30.33S WCI  20
LAWRENCE       CLEAR     30  18  60 SW8       30.32S
MANHATTAN      CLEAR     27  22  81 SW12      30.30F WCI  17
OLATHE IND     CLEAR     29  18  63 S22G29    30.31F WCI  15
OLATHE EXE     CLEAR     27  18  69 SW14G21   30.30F WCI  16
SALINA         CLEAR     25  20  81 S7        30.30F
TOPEKA BILLARD CLEAR     30  19  63 SW7       30.31S
TOPEKA FORBES  CLEAR     30  19  63 SW15      30.28F WCI  19
$$



USA.gov is the U.S. government's official web portal to all federal, state and local government web resources and services.